OK2ZEO-5 Weather Reports


Display with metric or nautical units.
time (UTC)temp
F
wind
direction
speed
MPH
gust
MPH
rain 1hr
in
rain 24hr
in
rain mn
in
humidity
%
barometer
mb
20260902031503 47 344 1.0 3.0 0.00 0.00 0.00 53 1022.3
20260902031003 47 344 2.0 4.0 0.00 0.00 0.00 53 1022.3
20260902030503 47 345 3.0 4.0 0.00 0.00 0.00 53 1022.3
20260902030003 47 345 1.0 4.0 0.00 0.00 0.00 53 1022.3
20260902025503 47 343 0.0 2.0 0.00 0.00 0.00 53 1022.2
20260902025003 47 343 0.0 2.0 0.00 0.00 0.00 53 1022.2
20260902024718 47 341 0.0 2.0 0.00 0.00 0.00 53 1022.2
20260902024003 47 344 1.0 2.0 0.00 0.00 0.00 53 1022.3
20260902023716 47 344 2.0 4.0 0.00 0.00 0.00 53 1022.3
20260902023003 47 342 3.0 4.0 0.00 0.00 0.00 54 1022.4
20260902022503 48 339 1.0 4.0 0.00 0.00 0.00 53 1022.4
20260902022003 48 336 0.0 2.0 0.00 0.00 0.00 53 1022.3
20260902021503 48 338 0.0 1.0 0.00 0.00 0.00 54 1022.3
20260902021003 48 336 0.0 1.0 0.00 0.00 0.00 53 1022.3
20260902020503 48 336 1.0 3.0 0.00 0.00 0.00 54 1022.3
20260902020003 48 335 1.0 3.0 0.00 0.00 0.00 54 1022.4
20260902015504 48 333 0.0 2.0 0.00 0.00 0.00 54 1022.3
20260902015003 48 0 0.0 0.0 0.00 0.00 0.00 54 1022.4
20260902014503 48 0 0.0 0.0 0.00 0.00 0.00 54 1022.4
20260902014219 48 0 0.0 0.0 0.00 0.00 0.00 54 1022.4
20260902013503 48 0 0.0 0.0 0.00 0.00 0.00 54 1022.4
20260902013003 48 0 0.0 0.0 0.00 0.00 0.00 54 1022.4
20260902012503 48 0 0.0 0.0 0.00 0.00 0.00 54 1022.4
20260902012004 48 0 0.0 0.0 0.00 0.00 0.00 54 1022.4
20260902011503 48 0 0.0 0.0 0.00 0.00 0.00 54 1022.4
20260902011003 48 317 0.0 1.0 0.00 0.00 0.00 54 1022.4
20260902010718 48 325 0.0 1.0 0.00 0.00 0.00 54 1022.4
20260902010003 48 334 0.0 1.0 0.00 0.00 0.00 54 1022.4
20260902005503 49 337 0.0 1.0 0.00 0.00 0.00 54 1022.4
20260902005003 49 0 0.0 0.0 0.00 0.00 0.00 54 1022.4
20260902004718 49 317 0.0 1.0 0.00 0.00 0.00 54 1022.4
20260902004219 49 330 0.0 1.0 0.00 0.00 0.00 55 1022.3
20260902003503 49 0 0.0 0.0 0.00 0.00 0.00 54 1022.4
20260902003003 49 0 0.0 0.0 0.00 0.00 0.00 54 1022.4
20260902002503 49 324 0.0 1.0 0.00 0.00 0.00 54 1022.4
20260902002003 49 324 0.0 1.0 0.00 0.00 0.00 54 1022.4
20260902001503 49 332 0.0 1.0 0.00 0.00 0.00 54 1022.4
20260902001003 49 329 1.0 2.0 0.00 0.00 0.00 55 1022.4
20260902000503 50 331 1.0 3.0 0.00 0.00 0.00 55 1022.4
20260902000003 50 333 1.0 3.0 0.00 0.00 0.00 55 1022.4
20260901235503 50 334 2.0 3.0 0.00 0.00 0.00 55 1022.4
20260901235003 50 334 2.0 3.0 0.00 0.00 0.00 55 1022.4
20260901234503 50 334 1.0 3.0 0.00 0.00 0.00 56 1022.4
20260901234218 50 334 1.0 3.0 0.00 0.00 0.00 56 1022.4
20260901233503 50 333 1.0 3.0 0.00 0.00 0.00 57 1022.4
20260901233003 50 335 0.0 3.0 0.00 0.00 0.00 57 1022.3
20260901232717 50 0 0.0 0.0 0.00 0.00 0.00 57 1022.3
20260901232003 50 0 0.0 0.0 0.00 0.00 0.00 57 1022.4
20260901231503 50 0 0.0 0.0 0.00 0.00 0.00 57 1022.4
20260901231216 50 0 0.0 0.0 0.00 0.00 0.00 57 1022.4
20260901230717 51 0 0.0 0.0 0.00 0.00 0.00 57 1022.4
20260901230003 51 0 0.0 0.0 0.00 0.00 0.00 57 1022.5
20260901225503 51 0 0.0 0.0 0.00 0.00 0.00 57 1022.5
20260901225003 51 0 0.0 0.0 0.00 0.00 0.00 57 1022.5
20260901224717 51 0 0.0 0.0 0.00 0.00 0.00 57 1022.5
20260901224218 51 0 0.0 0.0 0.00 0.00 0.00 57 1022.5
20260901223503 51 0 0.0 0.0 0.00 0.00 0.00 57 1022.5
20260901223003 51 0 0.0 0.0 0.00 0.00 0.00 58 1022.5
20260901222503 51 0 0.0 0.0 0.00 0.00 0.00 58 1022.6
20260901222218 52 330 0.0 2.0 0.00 0.00 0.00 58 1022.5
20260901221503 52 326 1.0 2.0 0.00 0.00 0.00 58 1022.6
20260901221003 52 323 1.0 3.0 0.00 0.00 0.00 58 1022.5
20260901220717 52 322 2.0 3.0 0.00 0.00 0.00 58 1022.5
20260901220004 52 319 1.0 3.0 0.00 0.00 0.00 59 1022.5
20260901215503 52 0 0.0 0.0 0.00 0.00 0.00 59 1022.5
20260901215003 52 0 0.0 0.0 0.00 0.00 0.00 59 1022.5
20260901214503 52 0 0.0 0.0 0.00 0.00 0.00 59 1022.5
20260901214003 52 316 0.0 1.0 0.00 0.00 0.00 60 1022.5
20260901213719 52 316 0.0 1.0 0.00 0.00 0.00 60 1022.5
20260901213003 53 316 1.0 2.0 0.00 0.00 0.00 61 1022.5
20260901212503 53 316 0.0 2.0 0.00 0.00 0.00 61 1022.5
20260901212217 53 316 0.0 2.0 0.00 0.00 0.00 61 1022.5
20260901211503 53 0 0.0 0.0 0.00 0.00 0.00 62 1022.4
20260901211003 53 0 0.0 0.0 0.00 0.00 0.00 62 1022.4
20260901210503 53 0 0.0 0.0 0.00 0.00 0.00 63 1022.3
20260901210003 54 0 0.0 0.0 0.00 0.00 0.00 63 1022.4
20260901205718 54 0 0.0 0.0 0.00 0.00 0.00 64 1022.4
20260901205219 54 0 0.0 0.0 0.00 0.00 0.00 64 1022.3
20260901204503 54 0 0.0 0.0 0.00 0.00 0.00 65 1022.3
20260901204003 54 0 0.0 0.0 0.00 0.00 0.00 65 1022.4
20260901203503 54 0 0.0 0.0 0.00 0.00 0.00 66 1022.4
20260901203004 55 0 0.0 0.0 0.00 0.00 0.00 66 1022.4
20260901202503 55 0 0.0 0.0 0.00 0.00 0.00 67 1022.4
20260901202003 55 316 0.0 1.0 0.00 0.00 0.00 68 1022.3
20260901201503 56 316 0.0 1.0 0.00 0.00 0.00 68 1022.3
20260901201219 56 316 0.0 1.0 0.00 0.00 0.00 68 1022.3
20260901200503 56 0 0.0 0.0 0.00 0.00 0.00 69 1022.3
20260901200003 56 0 0.0 0.0 0.00 0.00 0.00 69 1022.3
20260901195503 56 0 0.0 0.0 0.00 0.00 0.00 69 1022.3
20260901195003 56 0 0.0 0.0 0.00 0.00 0.00 69 1022.4
20260901194503 56 0 0.0 0.0 0.00 0.00 0.00 69 1022.3
20260901194217 56 0 0.0 0.0 0.00 0.00 0.00 70 1022.3
20260901193718 56 316 0.0 2.0 0.00 0.00 0.00 70 1022.3
20260901193219 56 316 1.0 3.0 0.00 0.00 0.00 71 1022.3
20260901192716 57 316 1.0 3.0 0.00 0.00 0.00 71 1022.3
20260901192003 57 0 0.0 0.0 0.00 0.00 0.00 72 1022.2
20260901191503 58 0 0.0 0.0 0.00 0.00 0.00 73 1022.2
20260901191219 58 0 0.0 0.0 0.00 0.00 0.00 73 1022.1
20260901190503 58 0 0.0 0.0 0.00 0.00 0.00 73 1022.1
20260901190003 58 0 0.0 0.0 0.00 0.00 0.00 74 1022.1
20260901185503 59 0 0.0 0.0 0.00 0.00 0.00 74 1022.1
20260901185003 60 0 0.0 0.0 0.00 0.00 0.00 74 1022.1
20260901184503 60 0 0.0 0.0 0.00 0.00 0.00 74 1022.0
20260901184216 60 0 0.0 0.0 0.00 0.00 0.00 74 1022.0
20260901183503 61 0 0.0 0.0 0.00 0.00 0.00 73 1021.9
20260901183003 61 0 0.0 0.0 0.00 0.00 0.00 73 1021.9
20260901182503 61 0 0.0 0.0 0.00 0.00 0.00 73 1021.8
20260901182003 62 0 0.0 0.0 0.00 0.00 0.00 73 1021.7
20260901181717 62 0 0.0 0.0 0.00 0.00 0.00 73 1021.8
20260901181003 63 0 0.0 0.0 0.00 0.00 0.00 72 1021.6
20260901180503 64 0 0.0 0.0 0.00 0.00 0.00 71 1021.6
20260901180007 64 0 0.0 0.0 0.00 0.00 0.00 69 1021.6
20260901175503 65 0 0.0 0.0 0.00 0.00 0.00 67 1021.5
20260901175003 65 0 0.0 0.0 0.00 0.00 0.00 67 1021.5
20260901174503 66 0 0.0 0.0 0.00 0.00 0.00 65 1021.5
20260901174003 67 0 0.0 0.0 0.00 0.00 0.00 63 1021.5
20260901173503 68 316 0.0 2.0 0.00 0.00 0.00 62 1021.4
20260901173003 68 316 1.0 3.0 0.00 0.00 0.00 61 1021.4
20260901172503 69 316 1.0 3.0 0.00 0.00 0.00 59 1021.4
20260901172003 69 316 2.0 3.0 0.00 0.00 0.00 57 1021.4
20260901171503 70 316 2.0 3.0 0.00 0.00 0.00 56 1021.4
20260901171218 70 316 2.0 3.0 0.00 0.00 0.00 56 1021.3
20260901170503 70 316 2.0 4.0 0.00 0.00 0.00 55 1021.3
20260901170003 70 315 2.0 4.0 0.00 0.00 0.00 55 1021.3
20260901165503 71 308 2.0 4.0 0.00 0.00 0.00 55 1021.3
20260901165003 71 292 2.0 4.0 0.00 0.00 0.00 54 1021.3
20260901164503 71 275 2.0 6.0 0.00 0.00 0.00 55 1021.3
20260901164003 71 278 3.0 7.0 0.00 0.00 0.00 54 1021.3
20260901163503 71 285 4.0 7.0 0.00 0.00 0.00 53 1021.3
20260901163218 71 295 3.0 7.0 0.00 0.00 0.00 53 1021.3
20260901162503 71 300 3.0 7.0 0.00 0.00 0.00 54 1021.4
20260901162224 71 296 3.0 7.0 0.00 0.00 0.00 54 1021.4
20260901161717 71 299 3.0 7.0 0.00 0.00 0.00 54 1021.4
20260901161218 71 311 4.0 8.0 0.00 0.00 0.00 54 1021.5
20260901160503 71 312 5.0 9.0 0.00 0.00 0.00 53 1021.5
20260901160003 71 292 5.0 9.0 0.00 0.00 0.00 54 1021.5
20260901155503 71 283 5.0 10.0 0.00 0.00 0.00 54 1021.5
20260901155217 71 281 6.0 10.0 0.00 0.00 0.00 54 1021.5
20260901154507 71 309 5.0 10.0 0.00 0.00 0.00 54 1021.5
20260901154003 71 308 6.0 12.0 0.00 0.00 0.00 54 1021.6
20260901153503 71 305 6.0 12.0 0.00 0.00 0.00 54 1021.6
20260901153003 70 311 5.0 11.0 0.00 0.00 0.00 55 1021.5
20260901152503 70 316 5.0 9.0 0.00 0.00 0.00 56 1021.5
20260901152003 70 305 6.0 12.0 0.00 0.00 0.00 55 1021.6
20260901151503 70 287 8.0 14.0 0.00 0.00 0.00 55 1021.5
20260901151003 71 290 8.0 14.0 0.00 0.00 0.00 54 1021.6
20260901150503 71 297 7.0 13.0 0.00 0.00 0.00 54 1021.5
20260901150003 70 290 6.0 10.0 0.00 0.00 0.00 55 1021.5
20260901145503 70 299 5.0 9.0 0.00 0.00 0.00 55 1021.5
20260901145003 70 300 5.0 13.0 0.00 0.00 0.00 55 1021.4
20260901144503 70 297 6.0 13.0 0.00 0.00 0.00 57 1021.5
20260901144219 70 300 6.0 13.0 0.00 0.00 0.00 56 1021.6
20260901143503 70 298 7.0 13.0 0.00 0.00 0.00 56 1021.5
20260901143217 70 294 7.0 14.0 0.00 0.00 0.00 56 1021.6
20260901142503 70 294 7.0 14.0 0.00 0.00 0.00 55 1021.5
20260901142004 70 294 7.0 12.0 0.00 0.00 0.00 55 1021.5
20260901141503 70 293 7.0 12.0 0.00 0.00 0.00 56 1021.5
20260901141003 70 297 7.0 12.0 0.00 0.00 0.00 56 1021.5
20260901140503 70 300 7.0 13.0 0.00 0.00 0.00 54 1021.4
20260901140003 70 308 7.0 13.0 0.00 0.00 0.00 52 1021.4
20260901135503 70 320 8.0 13.0 0.00 0.00 0.00 53 1021.4
20260901135003 71 328 8.0 12.0 0.00 0.00 0.00 53 1021.4
20260901134503 71 327 7.0 13.0 0.00 0.00 0.00 53 1021.3
20260901134003 71 300 6.0 13.0 0.00 0.00 0.00 53 1021.5
20260901133503 71 278 7.0 13.0 0.00 0.00 0.00 53 1021.5
20260901133003 72 296 7.0 14.0 0.00 0.00 0.00 53 1021.4
20260901132503 71 308 6.0 14.0 0.00 0.00 0.00 55 1021.5
20260901132218 71 296 6.0 14.0 0.00 0.00 0.00 56 1021.5
20260901131719 70 276 6.0 16.0 0.00 0.00 0.00 55 1021.5
20260901131003 70 302 8.0 16.0 0.00 0.00 0.00 57 1021.5
20260901130503 69 302 8.0 16.0 0.00 0.00 0.00 59 1021.7
20260901130218 69 304 7.0 16.0 0.00 0.00 0.00 59 1021.6
20260901125507 70 326 7.0 14.0 0.00 0.00 0.00 60 1021.6
20260901125003 70 311 8.0 14.0 0.00 0.00 0.00 57 1021.5
20260901124505 70 302 8.0 13.0 0.00 0.00 0.00 58 1021.6
20260901124218 70 302 7.0 13.0 0.00 0.00 0.00 57 1021.6
20260901123503 70 319 6.0 13.0 0.00 0.00 0.00 57 1021.5
20260901123003 69 317 7.0 13.0 0.00 0.00 0.00 58 1021.6
20260901122503 70 301 6.0 12.0 0.00 0.00 0.00 58 1021.5
20260901122003 70 301 5.0 10.0 0.00 0.00 0.00 57 1021.5
20260901121503 70 314 4.0 9.0 0.00 0.00 0.00 57 1021.6
20260901121003 70 316 5.0 12.0 0.00 0.00 0.00 59 1021.6
20260901120503 69 328 7.0 12.0 0.00 0.00 0.00 60 1021.7
20260901120003 69 326 8.0 15.0 0.00 0.00 0.00 60 1021.6
20260901115503 69 300 10.0 16.0 0.00 0.00 0.00 59 1021.7
20260901115003 70 290 11.0 16.0 0.00 0.00 0.00 58 1021.7
20260901114504 69 290 12.0 19.0 0.00 0.00 0.00 57 1021.7
20260901114003 70 276 11.0 20.0 0.00 0.00 0.00 55 1021.7
20260901113503 70 278 10.0 20.0 0.00 0.00 0.00 56 1021.5
20260901113003 70 287 9.0 14.0 0.00 0.00 0.00 56 1021.5
20260901112503 70 287 8.0 14.0 0.00 0.00 0.00 56 1021.6
20260901112003 69 292 8.0 15.0 0.00 0.00 0.00 57 1021.7
20260901111503 69 289 9.0 15.0 0.00 0.00 0.00 57 1021.7
20260901111003 68 295 9.0 16.0 0.00 0.00 0.00 58 1021.6
20260901110503 69 301 8.0 16.0 0.00 0.00 0.00 56 1021.6
20260901110003 69 301 6.0 16.0 0.00 0.00 0.00 55 1021.6
20260901105719 69 306 7.0 13.0 0.00 0.00 0.00 57 1021.6
20260901105220 69 309 8.0 13.0 0.00 0.00 0.00 57 1021.6
20260901104503 68 309 8.0 14.0 0.00 0.00 0.00 57 1021.6
20260901104003 69 306 8.0 14.0 0.00 0.00 0.00 57 1021.6
20260901103503 69 306 8.0 13.0 0.00 0.00 0.00 58 1021.5
20260901103003 68 310 9.0 13.0 0.00 0.00 0.00 59 1021.7
20260901102503 68 295 8.0 13.0 0.00 0.00 0.00 59 1021.6
20260901102003 68 276 9.0 17.0 0.00 0.00 0.00 60 1021.5
20260901101503 68 276 9.0 17.0 0.00 0.00 0.00 59 1021.6
20260901101003 68 281 8.0 16.0 0.00 0.00 0.00 59 1021.6
20260901100503 67 274 8.0 16.0 0.00 0.00 0.00 60 1021.5
20260901100004 67 276 9.0 16.0 0.00 0.00 0.00 60 1021.6
20260901095504 67 291 7.0 14.0 0.00 0.00 0.00 60 1021.6
20260901095003 67 289 8.0 15.0 0.00 0.00 0.00 61 1021.5
20260901094716 67 283 9.0 15.0 0.00 0.00 0.00 61 1021.5
20260901094003 67 285 8.0 13.0 0.00 0.00 0.00 60 1021.5
20260901093503 67 291 7.0 13.0 0.00 0.00 0.00 61 1021.5
20260901093003 67 295 7.0 12.0 0.00 0.00 0.00 62 1021.5
20260901092716 67 300 8.0 14.0 0.00 0.00 0.00 61 1021.4
20260901092003 67 286 9.0 15.0 0.00 0.00 0.00 61 1021.3
20260901091503 67 275 9.0 17.0 0.00 0.00 0.00 61 1021.3
20260901091003 67 277 7.0 17.0 0.00 0.00 0.00 61 1021.4
20260901090503 66 284 9.0 17.0 0.00 0.00 0.00 62 1021.4
20260901090003 66 273 10.0 17.0 0.00 0.00 0.00 62 1021.4
20260901085503 67 276 8.0 17.0 0.00 0.00 0.00 61 1021.4
20260901085003 66 289 8.0 13.0 0.00 0.00 0.00 63 1021.3
20260901084716 66 294 8.0 14.0 0.00 0.00 0.00 62 1021.3
20260901084003 66 293 9.0 15.0 0.00 0.00 0.00 63 1021.2
20260901083717 67 291 8.0 15.0 0.00 0.00 0.00 62 1021.3
20260901083003 66 288 9.0 17.0 0.00 0.00 0.00 64 1021.2
20260901082715 66 280 10.0 21.0 0.00 0.00 0.00 64 1021.2
20260901082216 66 285 12.0 21.0 0.00 0.00 0.00 63 1021.3
20260901081503 66 296 10.0 17.0 0.00 0.00 0.00 63 1021.2
20260901081003 66 291 9.0 16.0 0.00 0.00 0.00 63 1021.1
20260901080503 67 284 9.0 15.0 0.00 0.00 0.00 65 1021.1
20260901080216 66 276 10.0 20.0 0.00 0.00 0.00 64 1021.0
20260901075503 66 284 9.0 20.0 0.00 0.00 0.00 65 1020.9
20260901075003 66 299 9.0 15.0 0.00 0.00 0.00 66 1020.9
20260901074503 66 298 9.0 17.0 0.00 0.00 0.00 66 1020.8
20260901074003 66 288 9.0 17.0 0.00 0.00 0.00 67 1020.8
20260901073503 66 283 9.0 16.0 0.00 0.00 0.00 67 1020.7
20260901073003 66 285 9.0 16.0 0.00 0.00 0.00 68 1020.6
20260901072503 66 290 10.0 16.0 0.00 0.00 0.00 67 1020.6
20260901072003 66 288 8.0 16.0 0.00 0.00 0.00 68 1020.6
20260901071503 65 290 9.0 17.0 0.00 0.00 0.00 68 1020.6
20260901071218 65 292 9.0 17.0 0.00 0.00 0.00 68 1020.6
20260901070503 64 295 9.0 16.0 0.00 0.00 0.00 69 1020.5
20260901070003 64 287 10.0 20.0 0.00 0.00 0.00 70 1020.5
20260901065503 64 279 10.0 20.0 0.00 0.00 0.00 70 1020.5
20260901065003 64 278 8.0 17.0 0.00 0.00 0.00 70 1020.4
20260901064503 65 287 6.0 17.0 0.00 0.00 0.00 70 1020.4
20260901064003 65 303 5.0 12.0 0.00 0.00 0.00 71 1020.3
20260901063717 64 298 6.0 13.0 0.00 0.00 0.00 71 1020.3
20260901063218 64 292 7.0 14.0 0.00 0.00 0.00 71 1020.3
20260901062503 64 297 7.0 14.0 0.00 0.00 0.00 71 1020.3
20260901062003 64 288 9.0 16.0 0.00 0.00 0.00 71 1020.2
20260901061503 64 289 9.0 16.0 0.00 0.00 0.00 71 1020.3
20260901061003 63 296 7.0 13.0 0.00 0.00 0.00 71 1020.2
20260901060719 63 296 7.0 14.0 0.00 0.00 0.00 72 1020.1
20260901060003 63 303 7.0 14.0 0.00 0.00 0.00 72 1020.1
20260901055503 63 318 9.0 17.0 0.00 0.00 0.00 72 1020.1
20260901055003 63 330 8.0 17.0 0.00 0.00 0.00 73 1020.0
20260901054503 62 335 6.0 14.0 0.00 0.00 0.00 73 1019.9
20260901054003 62 331 5.0 10.0 0.00 0.00 0.00 73 1020.0
20260901053503 62 327 6.0 12.0 0.00 0.00 0.00 73 1020.1
20260901053217 62 330 6.0 12.0 0.00 0.00 0.00 74 1020.0
20260901052503 61 348 5.0 8.0 0.00 0.00 0.00 74 1019.9
20260901052004 61 348 5.0 8.0 0.00 0.00 0.00 74 1019.9
20260901051503 61 343 4.0 8.0 0.00 0.00 0.00 74 1019.9
20260901051007 61 346 3.0 6.0 0.00 0.00 0.00 74 1019.8
20260901050503 61 348 3.0 6.0 0.00 0.00 0.00 74 1019.9
20260901050003 61 339 3.0 6.0 0.00 0.00 0.00 74 1019.8
20260901045503 61 342 2.0 10.0 0.00 0.00 0.00 74 1019.8
20260901045003 61 348 2.0 10.0 0.00 0.00 0.00 74 1019.7
20260901044505 61 343 3.0 8.0 0.00 0.00 0.00 74 1019.7
20260901044003 61 348 2.0 8.0 0.00 0.00 0.00 74 1019.6
20260901043503 61 341 1.0 5.0 0.00 0.00 0.00 74 1019.6
20260901043003 61 322 3.0 7.0 0.00 0.00 0.00 74 1019.5
20260901042503 61 325 3.0 8.0 0.00 0.00 0.00 73 1019.6
20260901042219 61 327 3.0 8.0 0.00 0.00 0.00 73 1019.5
20260901041716 61 310 2.0 8.0 0.00 0.00 0.00 73 1019.4
20260901041003 61 303 2.0 9.0 0.00 0.00 0.00 73 1019.4
20260901040503 61 308 1.0 8.0 0.00 0.00 0.00 73 1019.5
20260901040003 61 335 2.0 7.0 0.00 0.00 0.00 73 1019.4
20260901035503 61 329 3.0 7.0 0.00 0.00 0.00 73 1019.3
20260901035003 60 327 2.0 6.0 0.00 0.00 0.00 74 1019.3
20260901034503 60 332 3.0 7.0 0.00 0.00 0.00 74 1019.2
20260901034003 60 325 2.0 7.0 0.00 0.00 0.00 74 1019.1
20260901033503 60 295 1.0 4.0 0.00 0.00 0.00 74 1019.1
20260901033003 60 311 1.0 6.0 0.00 0.00 0.00 74 1019.0
20260901032718 60 315 1.0 6.0 0.00 0.00 0.00 74 1019.0
20260901032219 60 0 0.0 0.0 0.00 0.00 0.00 74 1019.0